North Myrtle Beach, SC

2:41 AM EST on December 16, 2019 (GMT -0500)
Grand Strand

Weather History for KCRE - October, 2019

Change the Weather History Date:

Friday, October 18, 2019

  Actual Average Record
Temperature  
Mean Temperature 60 °F 65 °F  
Max Temperature 71 °F 74 °F 84 °F (1941)
Min Temperature 48 °F 55 °F 35 °F (1970)
Degree Days  
Heating Degree Days 5 3  
Month to date heating degree days 10 28  
Since 1 July heating degree days 10 32  
Cooling Degree Days 0 2  
Month to date cooling degree days 134 74  
Year to date cooling degree days 2317 1858  
Growing Degree Days 9 (Base 50)    
Moisture  
Dew Point 44 °F    
Average Humidity 63    
Maximum Humidity 93    
Minimum Humidity 33    
Precipitation  
Precipitation 0.00 in 0.13 in 3.49 in (1968)
Month to date precipitation 1.21 2.51  
Year to date precipitation 43.78 44.14  
Sea Level Pressure  
Sea Level Pressure 30.01 in    
Wind  
Wind Speed 4 mph (North)    
Max Wind Speed 14 mph    
Max Gust Speed 17 mph    
Visibility 10 miles    
Events      
T = Trace of Precipitation, MM = Missing Value Source: NWS Daily Summary

Daily Weather History Graph

Daily Weather History Graph

Search for Another Location

Airport or City:

Astronomy

Oct. 18, 2019 Rise Set
Actual Time 7:21 AM EDT 6:37 PM EDT
Civil Twilight 6:56 AM EDT 7:02 PM EDT
Nautical Twilight 6:27 AM EDT 7:31 PM EDT
Astronomical Twilight 5:58 AM EDT 8:00 PM EDT
Moon 10:03 PM EDT (10/18) 11:42 AM EDT (10/18)
Length of Visible Light 12h 06m
Length of Day
11h 15m
Waning Gibbous, 79% of the Moon is Illuminated
Oct 18
Waning Gibbous
Oct 21
Last Quarter
Oct 27
New
Nov 4
First Quarter
Nov 12
Full

Hourly Weather History & Observations

Time (EDT) Temp. Dew Point Humidity Pressure Visibility Wind Dir Wind Speed Gust Speed Precip Events Conditions
12:53 AM 51.1 °F 48.9 °F 92% 29.93 in 10.0 mi Calm Calm - N/A   Clear
1:53 AM 48.0 °F 46.9 °F 96% 29.95 in 10.0 mi Calm Calm - N/A   Clear
2:53 AM 50.0 °F 46.9 °F 89% 29.96 in 10.0 mi NW 3.5 mph - N/A   Clear
3:53 AM 53.1 °F 43.0 °F 69% 29.97 in 10.0 mi NNW 5.8 mph - N/A   Clear
4:53 AM 51.1 °F 42.1 °F 71% 29.98 in 10.0 mi North 6.9 mph - N/A   Clear
5:53 AM 50.0 °F 41.0 °F 71% 29.99 in 10.0 mi North 5.8 mph - N/A   Clear
6:53 AM 50.0 °F 41.0 °F 71% 30.00 in 10.0 mi North 6.9 mph - N/A   Clear
7:53 AM 50.0 °F 41.0 °F 71% 30.01 in 10.0 mi North 5.8 mph - N/A   Clear
8:53 AM 54.0 °F 41.0 °F 62% 30.03 in 10.0 mi North 9.2 mph - N/A   Clear
9:53 AM 57.9 °F 41.0 °F 53% 30.04 in 10.0 mi North 10.4 mph - N/A   Clear
10:53 AM 62.1 °F 39.9 °F 44% 30.04 in 10.0 mi North 11.5 mph - N/A   Clear
11:53 AM 64.0 °F 39.9 °F 41% 30.04 in 10.0 mi Variable 4.6 mph - N/A   Clear
12:53 PM 66.0 °F 42.1 °F 42% 30.02 in 10.0 mi North 3.5 mph - N/A   Clear
1:53 PM 68.0 °F 41.0 °F 37% 30.01 in 10.0 mi Variable 4.6 mph - N/A   Clear
2:53 PM 70.0 °F 39.9 °F 33% 29.99 in 10.0 mi Variable 4.6 mph - N/A   Clear
3:53 PM 70.0 °F 41.0 °F 35% 30.00 in 10.0 mi West 3.5 mph - N/A   Clear
5:53 PM 64.0 °F 50.0 °F 60% 30.01 in 10.0 mi Calm Calm - N/A   Clear
6:53 PM 59.0 °F 50.0 °F 72% 30.02 in 10.0 mi Calm Calm - N/A   Clear
7:53 PM 57.0 °F 51.1 °F 81% 30.03 in 10.0 mi Calm Calm - N/A   Clear
8:53 PM 53.1 °F 50.0 °F 89% 30.03 in 10.0 mi Calm Calm - N/A   Clear
9:53 PM 54.0 °F 48.9 °F 83% 30.04 in 10.0 mi Calm Calm - N/A   Clear
10:53 PM 53.1 °F 48.9 °F 86% 30.05 in 10.0 mi Calm Calm - N/A   Clear
11:53 PM 54.0 °F 48.0 °F 80% 30.04 in 10.0 mi NE 3.5 mph - N/A   Clear